RH
28 26 23 36 44 56 64 62 59 43 36 48 49 51 60 59 66 68 84 89 95 98 96 96 96 98 99 99 100 100 99 100 100 100 100 100 91 88 94 96 99 99 100 100
16 19 35 30 34 42 46 52 46 36 33 47 78 85 88 87 89 91 88 88 93 93 100 95 95 96 97 99 99 100 99 99 98 100 100 100 100 98 97 100 94 100 94 100
28 28 37 41 43 44 43 47 43 51 43 45 78 83 89 87 86 90 94 95 96 98 100 98 94 95 95 96 98 98 99 100 99 100 100 100 100 97 100 99 100 99 92 100
40 29 36 44 42 34 57 42 45 50 50 62 53 62 83 86 87 84 90 93 96 99 100 98 94 95 95 95 96 97 100 100 99 99 100 100 98 100 100 99 99 100 100 99
34 43 43 43 37 34 52 37 52 56 63 59 54 77 87 61 74 82 84 93 97 100 100 99 96 95 95 95 96 96 96 99 100 100 100 100 98 100 100 100 100 99 98 99
38 34 36 37 29 31 35 51 58 68 69 83 49 52 92 78 87 80 82 93 98 100 100 96 96 96 96 96 96 96 96 96 99 100 100 100 99 99 99 100 100 100 97 99
32 41 35 33 34 29 45 65 65 77 89 57 67 74 92 82 81 89 90 93 98 100 100 97 95 95 96 95 95 96 96 96 96 96 100 100 100 100 100 100 100 100 99 100
60 57 43 35 44 52 51 70 88 85 59 83 70 94 89 87 87 91 97 99 100 100 100 97 97 96 96 96 96 96 96 96 96 96 96 97 100 100 100 100 100 100 100 100
76 72 37 32 37 46 62 76 58 89 70 83 85 88 87 79 82 83 91 95 99 100 100 97 97 96 96 96 96 96 96 96 96 96 97 96 98 98 100 100 100 100 100 100
73 80 44 34 34 40 62 55 88 82 89 82 81 85 88 85 88 85 83 92 97 100 100 97 97 96 97 97 96 96 96 95 96 96 96 96 96 95 98 98 99 100 100 100
69 80 65 38 69 76 72 75 69 85 87 89 82 86 84 86 87 88 90 94 97 100 100 98 97 97 96 97 96 96 96 95 96 96 95 96 95 97 96 96 96 97 100 100
80 82 77 63 64 61 63 84 75 87 87 85 80 89 85 85 85 87 88 94 98 100 98 97 97 97 96 96 96 96 96 95 96 96 96 96 96 96 96 96 96 97 97 97
76 85 86 84 55 50 74 74 75 79 78 90 84 84 79 83 86 90 91 94 99 100 98 99 96 97 97 96 96 96 96 95 96 96 95 96 96 95 95 96 96 96 96 97
57 63 58 76 86 69 82 83 78 66 78 80 90 85 80 80 87 87 92 97 98 99 99 97 97 97 96 97 97 97 96 96 96 96 96 95 96 95 95 96 96 96 96 96
66 85 79 81 70 70 84 88 89 92 89 86 90 88 88 88 89 91 97 97 97 98 99 100 99 98 97 97 97 97 96 96 96 96 96 95 95 96 95 96 96 96 96 95
80 89 85 91 86 83 80 83 76 77 81 76 76 79 85 91 92 90 94 96 96 98 100 100 98 98 96 98 97 97 97 97 96 95 95 95 95 96 96 96 96 96 96 95
85 84 88 87 91 92 65 96 88 86 84 85 89 92 82 83 86 90 92 96 98 100 100 100 99 97 83 84 93 98 84 64 96 92 39 39 53 80 93 95 95 95 95 96
79 91 86 83 70 77 87 75 80 89 89 87 82 86 87 92 94 99 100 98 99 100 99 98 97 98 87 68 57 52 68 74 35 35 30 28 26 21 19 20 44 90 94 95
68 73 77 73 83 90 64 80 86 89 86 86 89 77 76 81 85 97 97 99 98 98 100 98 96 97 97 69 55 49 46 41 36 35 33 30 29 27 24 21 18 17 19 39
46 57 70 78 81 88 87 71 65 84 86 78 84 81 83 75 79 69 99 100 100 98 100 98 97 80 66 61 49 51 49 43 37 33 32 30 28 29 27 24 23 21 18 16
59 72 83 80 86 83 84 53 64 69 82 88 83 85 88 87 91 94 91 93 100 99 100 99 98 97 74 52 49 51 51 50 41 35 34 31 27 27 27 25 24 23 20 20
77 83 73 67 74 78 87 54 73 85 86 83 85 85 90 91 90 88 91 93 95 100 100 99 98 97 98 92 66 52 49 51 47 41 38 38 30 25 23 22 22 21 20 20
76 81 88 84 75 61 81 85 100 98 93 87 91 89 90 92 89 92 96 97 99 100 100 100 100 98 98 98 99 93 64 51 49 44 43 42 39 34 26 22 22 22 21 21
58 100 83 79 63 76 77 93 78 88 97 95 90 91 94 94 93 96 99 100 100 100 100 100 100 100 100 98 100 100 100 87 56 49 47 43 45 40 37 29 23 21 21 21
77 71 82 68 65 82 65 77 94 98 96 91 95 97 100 97 99 100 100 100 100 100 100 100 100 100 100 98 99 100 100 98 96 82 57 49 47 47 42 37 33 23 20 20
83 89 89 86 88 98 91 98 100 100 100 100 100 100 100 100 100 100 100 100 100 100 100 95 98 98 95 91 96 100 100 97 97 96 95 77 58 52 49 46 41 36 28 22
Wind_Speed
3 6 9 12 12 12 13 16 20 21 17 16 18 15 14 9 10 8 10 11 12 14 12 11 10 7 2 2 4 6 11 12 15 18 21 27 26 28 24 29 28 25 28 27
5 8 10 10 8 7 11 16 19 19 15 9 5 5 15 17 19 22 19 19 18 17 17 14 14 12 9 5 2 4 4 6 13 17 16 20 23 24 26 27 28 25 27 31
6 11 12 6 10 12 8 10 11 14 15 14 14 8 7 13 21 24 25 20 21 21 21 20 17 16 13 10 6 0 6 6 9 12 18 15 17 21 24 19 21 24 30 29
4 12 12 10 9 15 11 7 13 15 10 7 4 5 8 9 15 18 23 24 23 23 21 20 19 16 16 13 10 6 2 7 10 11 19 21 16 18 15 19 21 17 18 22
9 14 14 11 13 14 5 18 18 18 14 12 14 7 6 11 13 18 18 22 22 21 21 21 20 18 16 13 11 9 7 2 6 10 11 17 19 15 14 18 18 13 21 22
16 12 14 12 18 7 19 12 16 13 9 8 15 15 6 9 13 14 17 20 21 21 22 21 18 16 15 13 10 9 7 5 4 11 14 17 18 20 18 14 12 15 22 17
6 22 7 28 12 6 22 13 3 5 6 3 11 7 9 10 10 11 13 18 20 21 22 25 24 23 19 17 14 12 10 8 6 5 11 17 18 18 17 17 16 15 15 15
7 5 17 17 17 11 11 8 4 5 4 5 13 6 5 8 11 13 13 15 18 21 22 24 24 24 23 20 18 15 14 12 9 8 9 12 15 18 16 15 15 15 15 15
6 5 9 17 20 18 9 6 11 5 7 5 5 5 7 14 13 15 17 18 19 20 22 23 23 23 23 23 22 19 17 16 13 13 11 11 12 13 15 16 15 15 15 16
2 1 14 14 8 21 10 8 1 1 4 2 5 5 8 16 15 13 15 18 18 18 19 22 22 21 21 21 21 20 20 20 18 16 15 14 13 12 13 14 16 16 15 16
5 2 8 9 16 17 13 6 3 2 3 4 4 4 10 11 12 12 14 16 15 17 17 20 20 19 18 18 19 20 21 21 21 19 18 16 16 15 15 14 14 16 16 16
6 2 5 7 5 9 19 14 3 3 4 4 3 4 11 11 11 14 15 16 14 14 17 20 20 19 18 18 18 18 19 20 21 20 19 19 18 18 17 16 16 16 16 17
5 2 4 5 2 16 17 21 8 1 1 13 3 3 9 13 14 15 14 15 15 15 16 16 19 19 18 17 16 16 15 17 18 18 19 19 20 20 21 18 17 17 18 19
4 8 13 11 9 10 13 22 20 10 8 10 6 8 15 16 15 18 17 16 14 15 16 16 16 17 17 16 14 14 14 14 15 16 16 18 20 21 23 23 20 20 20 20
4 10 16 14 11 18 20 16 19 19 14 8 9 8 15 17 15 16 14 14 14 16 16 16 15 16 16 15 14 14 14 14 14 14 13 15 16 17 18 23 27 25 24 24
6 5 4 4 6 4 20 19 11 12 17 12 9 7 16 21 16 12 12 15 15 16 15 15 15 15 16 15 13 13 13 12 13 14 13 13 11 12 14 14 20 24 24 24
4 3 2 3 3 3 7 20 13 7 13 13 12 15 22 18 22 14 11 17 19 19 17 15 14 14 14 14 13 10 9 9 9 8 8 8 8 8 8 9 12 15 18 20
4 2 2 2 2 5 3 16 10 6 10 17 16 15 20 23 26 9 9 22 23 21 19 17 16 13 11 12 11 9 9 7 6 6 6 6 7 7 8 8 6 7 9 9
11 1 3 2 4 2 2 15 16 5 3 18 19 20 27 28 20 5 22 27 24 22 19 15 14 15 12 12 11 9 8 5 5 5 5 5 6 6 6 7 7 7 8 8
12 10 6 3 3 3 5 22 16 4 3 27 27 23 26 29 11 11 32 26 24 21 19 16 12 12 12 11 10 9 8 7 5 5 5 5 5 5 5 6 6 6 7 8
15 6 12 8 3 3 9 24 12 5 10 29 26 25 23 16 20 28 27 25 21 20 19 16 13 11 10 10 9 8 7 7 5 4 4 4 4 4 5 6 6 6 7 8
11 8 7 6 5 5 19 14 8 8 21 25 24 24 24 24 24 23 24 22 21 20 19 17 15 13 10 10 10 8 6 7 5 4 3 3 3 3 4 4 5 5 6 7
5 5 5 4 6 18 18 25 6 23 28 24 25 24 23 24 24 24 23 21 19 17 17 15 16 14 11 9 9 8 7 8 7 5 4 4 3 1 2 2 3 4 4 6
9 1 3 11 2 17 33 6 27 28 24 23 23 24 22 23 23 22 20 19 18 17 15 16 15 14 13 11 10 9 8 10 11 9 8 6 5 4 2 2 2 2 3 4
9 9 11 10 11 27 7 30 31 28 24 23 24 23 20 22 23 19 19 17 17 17 16 16 15 14 13 12 11 10 10 10 11 11 11 11 10 9 7 5 4 4 4 6
19 11 7 8 28 21 30 34 27 28 26 24 25 24 22 20 19 17 16 14 15 16 16 17 15 15 15 13 11 11 11 11 11 12 12 13 13 13 12 10 9 7 7 7
Wind_Direction
334 276 283 324 300 290 282 274 267 271 288 292 273 288 24 64 57 59 54 42 32 19 356 352 349 343 296 214 241 206 204 191 191 184 187 194 200 209 211 222 211 209 212 230
277 300 349 315 350 319 284 276 272 276 275 320 307 70 67 59 51 48 40 29 17 5 358 355 351 351 350 349 176 194 191 211 197 180 186 192 200 202 212 222 212 217 221 219
311 14 350 350 42 2 331 283 291 295 307 272 257 212 95 71 52 41 32 26 20 12 2 357 357 356 348 348 5 112 175 197 205 163 179 189 191 217 218 209 205 215 222 225
65 17 16 43 19 351 315 0 316 303 306 273 343 233 75 72 49 35 22 17 12 9 7 5 2 2 1 356 344 333 1 145 168 190 167 181 192 213 209 213 219 212 216 221
32 16 25 18 349 331 321 316 287 274 263 273 243 244 63 32 12 13 14 13 12 10 9 11 12 12 10 5 0 354 342 0 159 149 159 168 189 199 206 218 218 207 228 230
60 57 36 350 321 339 344 316 284 258 242 246 248 217 43 16 348 357 8 12 11 12 15 20 22 22 24 25 23 21 13 13 95 140 158 162 178 190 198 205 204 212 226 227
336 46 59 14 358 350 358 350 295 209 187 262 355 55 39 13 14 11 8 6 10 13 19 24 26 28 32 34 36 42 40 42 57 111 132 148 164 175 181 189 197 197 199 199
0 11 20 22 25 308 340 350 2 288 277 36 36 45 41 42 28 21 21 16 15 14 18 26 30 32 36 41 44 50 55 58 63 68 93 127 149 155 164 174 184 191 190 194
347 88 48 37 42 16 342 22 309 275 231 252 101 100 120 18 20 18 17 16 14 11 13 21 29 33 38 43 46 52 59 63 67 72 82 93 110 132 144 155 164 174 181 185
9 312 21 41 17 32 34 356 203 176 294 178 97 68 7 357 1 4 9 10 9 12 13 18 24 30 37 44 50 56 61 63 67 73 78 83 94 109 122 129 141 150 159 164
349 318 62 48 20 13 10 11 352 293 303 327 131 71 357 355 357 358 1 4 2 5 12 16 19 26 32 42 50 54 62 67 70 75 79 88 95 100 104 114 119 124 136 142
16 30 74 100 70 25 21 4 9 324 31 22 49 61 4 0 1 359 358 359 359 1 5 15 17 20 27 34 44 52 59 65 67 73 79 83 89 94 101 105 109 115 118 124
1 36 145 148 140 27 25 21 32 90 350 29 30 40 360 357 354 356 354 355 356 3 4 11 14 16 21 26 34 44 55 63 66 73 80 83 86 90 90 94 101 108 112 113
47 53 78 99 93 48 33 27 24 35 59 61 52 6 2 356 349 346 349 350 352 358 1 6 12 16 15 15 25 38 46 55 65 69 78 84 85 90 90 88 95 98 100 106
67 96 104 112 98 71 47 33 32 42 35 38 354 4 358 347 339 339 345 355 356 355 358 360 1 13 14 11 15 28 36 42 52 58 74 82 83 92 101 96 94 99 97 95
347 129 150 193 235 3 41 27 31 42 32 28 25 21 350 344 347 354 6 4 360 356 359 352 354 6 10 7 12 16 21 35 46 44 51 58 75 91 100 107 103 101 101 100
27 137 222 85 42 189 19 7 1 51 38 21 19 350 346 346 348 337 351 355 347 346 347 350 349 357 354 359 1 13 30 25 39 50 59 73 72 62 75 100 110 120 113 108
28 37 354 77 254 55 57 12 353 338 59 28 8 353 352 342 333 328 350 345 340 342 340 349 350 355 354 348 354 5 13 20 38 53 58 67 82 92 102 108 111 114 124 129
38 36 68 23 40 99 341 356 342 323 180 21 359 349 348 343 334 77 351 343 339 344 343 337 340 338 348 345 353 1 2 12 28 43 57 61 74 84 96 103 114 126 132 135
21 21 47 19 43 32 24 341 351 209 191 3 350 340 345 343 343 335 336 338 339 340 343 346 332 325 327 335 344 348 344 355 16 34 39 60 63 76 89 95 101 113 126 129
2 359 23 7 10 92 6 358 331 16 328 332 336 334 337 335 321 317 329 332 336 338 340 342 341 332 324 320 321 322 331 340 353 15 29 38 63 73 85 95 107 110 111 116
8 347 8 344 345 12 6 356 6 327 328 330 331 328 326 324 324 325 328 331 334 337 342 344 346 345 333 316 308 310 322 313 323 338 353 3 34 52 64 79 88 101 112 123
18 20 319 338 304 312 332 328 297 329 328 327 326 325 323 322 323 324 326 330 333 335 337 340 340 339 342 330 308 302 292 287 290 293 300 305 316 355 37 62 86 104 127 138
9 318 288 320 8 330 319 345 333 330 323 321 324 322 317 320 321 319 323 327 331 334 336 335 335 334 334 330 319 309 290 273 274 273 274 278 277 270 245 199 170 157 162 160
353 321 329 294 297 323 320 321 324 326 325 321 322 323 315 320 316 315 317 322 327 329 326 332 334 334 332 325 321 310 295 283 273 268 265 264 265 265 257 243 225 211 196 188
357 333 330 314 315 307 309 317 323 323 324 325 325 325 321 319 316 314 315 318 331 330 327 330 333 333 331 330 323 311 297 286 279 271 264 262 259 257 255 250 244 232 218 212